TimeMDT,TemperatureF,Dew PointF,Humidity,Sea Level PressureIn,VisibilityMPH,Wind Direction,Wind SpeedMPH,Gust SpeedMPH,PrecipitationIn,Events,Conditions,WindDirDegrees,DateUTC
12:14 AM,30.2,26.6,86,30.22,5.0,Calm,Calm,-,N/A,,Haze,0,2013-03-13 06:14:00
12:35 AM,30.2,24.8,80,30.22,5.0,Calm,Calm,-,N/A,,Haze,0,2013-03-13 06:35:00
12:55 AM,28.4,24.8,86,30.21,5.0,SSW,5.8,-,N/A,,Clear,210,2013-03-13 06:55:00
1:15 AM,30.2,26.6,86,30.21,5.0,SW,4.6,-,N/A,,Clear,230,2013-03-13 07:15:00
1:35 AM,30.2,26.6,86,30.21,5.0,SSW,3.5,-,N/A,,Clear,210,2013-03-13 07:35:00
1:55 AM,30.2,26.6,86,30.19,7.0,SW,6.9,-,N/A,,Clear,220,2013-03-13 07:55:00
2:15 AM,30.2,26.6,86,30.19,7.0,SW,5.8,-,N/A,,Clear,220,2013-03-13 08:15:00
2:55 AM,32.0,26.6,80,30.17,5.0,SW,4.6,-,N/A,,Haze,230,2013-03-13 08:55:00
3:14 AM,30.2,26.6,86,30.16,5.0,SW,4.6,-,N/A,,Haze,230,2013-03-13 09:14:00
3:34 AM,32.0,26.6,80,30.15,7.0,Calm,Calm,-,N/A,,Clear,0,2013-03-13 09:34:00
3:54 AM,32.0,28.4,87,30.15,7.0,SSE,3.5,-,N/A,,Clear,160,2013-03-13 09:54:00
4:15 AM,35.6,26.6,70,30.15,10.0,WNW,5.8,-,N/A,,Clear,300,2013-03-13 10:15:00
4:35 AM,32.0,26.6,80,30.15,7.0,West,8.1,-,N/A,,Clear,280,2013-03-13 10:35:00
4:55 AM,33.8,26.6,75,30.17,7.0,North,11.5,18.4,N/A,,Clear,10,2013-03-13 10:55:00
5:15 AM,30.2,26.6,86,30.17,5.0,North,5.8,10.4,N/A,,Haze,360,2013-03-13 11:15:00
5:35 AM,30.2,26.6,86,30.17,5.0,Calm,Calm,-,N/A,,Clear,0,2013-03-13 11:35:00
5:52 AM,32.0,24.8,75,30.18,30.0,NW,9.2,17.3,N/A,,Partly Cloudy,320,2013-03-13 11:52:00
5:55 AM,32.0,26.6,80,30.18,7.0,NNW,13.8,17.3,N/A,,Clear,330,2013-03-13 11:55:00
6:47 AM,42.8,23.0,46,30.18,30.0,West,15.0,-,N/A,,Partly Cloudy,280,2013-03-13 12:47:00
7:45 AM,46.4,23.0,40,30.20,60.0,WNW,23.0,32.2,N/A,,Scattered Clouds,290,2013-03-13 13:45:00
8:47 AM,48.2,23.0,37,30.23,60.0,West,15.0,-,N/A,,Scattered Clouds,280,2013-03-13 14:47:00
9:47 AM,41.0,28.4,61,30.23,60.0,NNW,8.1,-,N/A,,Scattered Clouds,330,2013-03-13 15:47:00
10:20 AM,37.4,30.2,75,30.26,15.0,NNW,11.5,-,N/A,,Mostly Cloudy,340,2013-03-13 16:20:00
10:47 AM,39.2,28.4,65,30.26,5.0,North,9.2,-,N/A,,Haze,10,2013-03-13 16:47:00
11:57 AM,46.4,30.2,53,30.27,7.0,Calm,Calm,-,N/A,,Mostly Cloudy,0,2013-03-13 17:57:00
12:48 PM,50.0,30.2,47,30.27,8.0,NNE,4.6,-,N/A,,Mostly Cloudy,30,2013-03-13 18:48:00
1:30 PM,53.6,30.2,41,30.26,15.0,NE,6.9,-,N/A,,Mostly Cloudy,50,2013-03-13 19:30:00
2:49 PM,59.0,26.6,29,30.23,20.0,Variable,4.6,-,N/A,,Mostly Cloudy,0,2013-03-13 20:49:00
3:57 PM,59.0,26.6,29,30.21,40.0,WSW,11.5,-,N/A,,Mostly Cloudy,250,2013-03-13 21:57:00
4:56 PM,62.6,15.8,16,30.20,50.0,West,23.0,28.8,N/A,,Mostly Cloudy,270,2013-03-13 22:56:00
5:46 PM,60.8,15.8,17,30.21,50.0,West,17.3,-,N/A,,Mostly Cloudy,260,2013-03-13 23:46:00
6:47 PM,55.4,19.4,25,30.22,40.0,WSW,12.7,-,N/A,,Mostly Cloudy,250,2013-03-14 00:47:00
7:52 PM,51.8,19.4,28,30.22,40.0,West,21.9,-,N/A,,Mostly Cloudy,260,2013-03-14 01:52:00
8:47 PM,51.8,19.4,28,30.24,40.0,West,13.8,-,N/A,,Mostly Cloudy,260,2013-03-14 02:47:00
9:50 PM,48.2,19.4,32,30.24,30.0,West,6.9,-,N/A,,Mostly Cloudy,270,2013-03-14 03:50:00
11:14 PM,48.2,21.2,34,30.26,10.0,West,5.8,-,N/A,,Clear,280,2013-03-14 05:14:00
11:35 PM,46.4,21.2,37,30.26,10.0,West,8.1,-,N/A,,Clear,280,2013-03-14 05:35:00
11:54 PM,50.0,21.2,32,30.26,10.0,WNW,5.8,-,N/A,,Clear,290,2013-03-14 05:54:00